This demonstration page uses our WeatherBlox Daily Observations layout. Learn more.

Left ArrowRight Arrow

39.51506, -84.39828

Hourly Observations for October 5, 2020

Temp ( °F °C ) Dew Point ( °F °C ) Humidity (%) Winds ( mph kmh ) Pressure ( in mb ) Visibility ( mi km ) Precip ( " mm )
12:15 am 00:15 Clear 46 7.6 43 6 90 90 NNW 3 6 30.26 1025 10 16.0934 0 0
12:35 am 00:35 Clear 46 7.9 43 5.9 87 87 NNW 3 6 30.25 1025 10 16.0934 0 0
12:55 am 00:55 Clear 46 7.8 42 5.8 87 87 NW 5 7 30.25 1025 10 16.0934 0 0
1:15 am 01:15 Clear 44 6.9 42 5.4 90 90 NW 3 6 30.26 1025 10 16.0934 0 0
1:35 am 01:35 Clear 43 6.3 41 5.1 92 92 Calm 30.26 1025 10 16.0934 0 0
1:55 am 01:55 Clear 44 6.4 42 5.4 93 93 Calm 30.26 1025 10 16.0934 0 0
2:15 am 02:15 Clear 42 5.7 41 5 95 95 Calm 30.26 1025 10 16.0934 0 0
2:35 am 02:35 Clear 41 4.9 40 4.6 98 98 Calm 30.26 1025 10 16.0934 0 0
2:55 am 02:55 Clear 40 4.7 40 4.7 100 100 Calm 30.26 1025 10 16.0934 0 0
3:15 am 03:15 Mostly Cloudy with Mist and Fog 39 4 N/A N/A Calm 30.26 1025 1.25 2.011675 0 0
3:35 am 03:35 Mostly Cloudy with Mist and Fog 39 4 N/A N/A Calm 30.27 1025 1.25 2.011675 0 0
3:55 am 03:55 Clear with Mist and Fog 37 3 N/A N/A Calm 30.28 1025 3.5 5.63269 0 0
4:15 am 04:15 Clear 39 4 N/A N/A Calm 30.27 1025 10 16.0934 0 0
4:35 am 04:35 Mostly Cloudy with Fog 37 3 N/A N/A Calm 30.28 1025 0.25 0.402335 0 0
4:55 am 04:55 Mostly Cloudy with Fog 37 3 N/A N/A Calm 30.29 1026 0.25 0.402335 0 0
5:15 am 05:15 Mostly Cloudy with Fog 36 2 N/A N/A Calm 30.3 1026 0.25 0.402335 0 0
5:35 am 05:35 Mostly Cloudy with Fog 36 2 N/A N/A Calm 30.31 1026 0.5 0.80467 0 0
5:55 am 05:55 Mostly Cloudy with Fog 36 2 N/A N/A Calm 30.31 1026 0.5 0.80467 0 0
6:15 am 06:15 Cloudy with Fog 36 2 N/A N/A Calm 30.32 1027 0.25 0.402335 0 0
6:35 am 06:35 Mostly Cloudy with Fog 36 2 N/A N/A Calm 30.32 1027 0.5 0.80467 0 0
6:55 am 06:55 Mostly Cloudy with Fog 36 2 N/A N/A Calm 30.32 1027 0.25 0.402335 0 0
7:15 am 07:15 Cloudy with Fog 36 2 N/A N/A Calm 30.33 1027 0.25 0.402335 0 0
7:35 am 07:35 Cloudy with Fog 36 2 N/A N/A Calm 30.33 1027 0.25 0.402335 0 0
7:55 am 07:55 Cloudy with Fog 36 2 N/A N/A Calm 30.33 1027 0.25 0.402335 0 0
8:15 am 08:15 Cloudy with Fog 36 2 N/A N/A Calm 30.34 1027 N/A 0 0
8:35 am 08:35 Cloudy with Fog 37 3 N/A N/A Calm 30.34 1027 N/A 0 0
8:55 am 08:55 Cloudy with Fog 39 4 N/A N/A Calm 30.34 1028 0.5 0.80467 0 0
9:15 am 09:15 Cloudy with Haze 41 5 N/A N/A Calm 30.34 1027 5 8.0467 0 0
9:35 am 09:35 Cloudy with Mist and Fog 41 5 N/A N/A NNE 5 7 30.34 1027 3 4.82802 0 0
9:55 am 09:55 Cloudy with Mist and Fog 41 5 N/A N/A NE 3 6 30.34 1027 2.5 4.02335 0 0
10:15 am 10:15 Cloudy with Mist and Fog 41 5 N/A N/A NNE 3 6 30.34 1027 1.25 2.011675 0 0
10:35 am 10:35 Cloudy with Mist and Fog 43 6 N/A N/A Calm 30.34 1027 2.5 4.02335 0 0
10:55 am 10:55 Cloudy with Mist and Fog 43 6 N/A N/A Calm 30.35 1028 3.5 5.63269 0 0
11:15 am 11:15 Cloudy with Haze 43 6 N/A N/A Calm 30.35 1028 7 11.26538 0 0
11:35 am 11:35 Cloudy with Haze 43 6 N/A N/A Calm 30.35 1028 7 11.26538 0 0
11:55 am 11:55 Cloudy 45 7 N/A N/A Calm 30.35 1028 10 16.0934 0 0
12:15 pm 12:15 Mostly Cloudy 47 8.4 47 8.3 99 99 Calm 30.34 1028 10 16.0934 0 0
12:35 pm 12:35 Sunny 49 9.3 47 8.4 94 94 NE 3 6 30.33 1027 10 16.0934 0 0
12:55 pm 12:55 Sunny 50 10.1 47 8.4 89 89 NE 5 7 30.32 1027 10 16.0934 0 0
1:15 pm 13:15 Sunny 52 10.9 48 8.7 86 86 NNE 3 6 30.31 1026 10 16.0934 0 0
1:35 pm 13:35 Sunny 53 11.9 48 8.8 81 81 Calm 30.29 1026 10 16.0934 0 0
1:55 pm 13:55 Sunny 53 11.7 46 8 78 78 Calm 30.28 1026 10 16.0934 0 0
2:15 pm 14:15 Sunny 56 13.4 45 7 65 65 S 3 6 30.27 1025 10 16.0934 0 0
2:35 pm 14:35 Partly Cloudy 58 14.2 44 6.6 60 60 SSE 3 6 30.26 1025 10 16.0934 0 0
2:55 pm 14:55 Sunny 58 14.5 42 5.5 55 55 Calm 30.25 1024 10 16.0934 0 0
3:15 pm 15:15 Sunny 58 14.4 42 5.3 55 55 Calm 30.24 1024 10 16.0934 0 0
3:35 pm 15:35 Partly Cloudy 60 15.3 42 5.5 52 52 Calm 30.23 1024 10 16.0934 0 0
3:55 pm 15:55 Sunny 60 15.7 42 5.8 52 52 Calm 30.21 1023 10 16.0934 0 0
4:15 pm 16:15 Sunny 60 15.7 42 5.5 51 51 W 3 6 30.2 1023 10 16.0934 0 0
4:35 pm 16:35 Sunny 60 15.8 41 5.2 50 50 Calm 30.19 1023 10 16.0934 0 0
4:55 pm 16:55 Sunny 61 16.1 41 5.1 48 48 W 7 11 30.19 1022 10 16.0934 0 0
5:15 pm 17:15 Sunny 61 16.2 41 4.9 47 47 Calm 30.18 1022 10 16.0934 0 0
5:35 pm 17:35 Sunny 62 16.5 40 4.2 44 44 SSW 7 11 30.17 1022 10 16.0934 0 0
5:55 pm 17:55 Sunny 61 16.2 38 3.6 43 43 WSW 3 6 30.16 1021 10 16.0934 0 0
6:15 pm 18:15 Sunny 61 16.1 37 3 42 42 Calm 30.15 1021 10 16.0934 0 0
6:35 pm 18:35 Sunny 60 15.7 38 3.3 44 44 Calm 30.15 1021 10 16.0934 0 0
6:55 pm 18:55 Sunny 59 14.8 38 3.4 47 47 Calm 30.16 1021 10 16.0934 0 0
7:15 pm 19:15 Clear 52 11.3 45 7 75 75 Calm 30.17 1022 10 16.0934 0 0
7:35 pm 19:35 Clear 51 10.4 46 7.7 84 84 Calm 30.18 1022 10 16.0934 0 0
7:55 pm 19:55 Clear 49 9.3 45 7.3 87 87 Calm 30.18 1022 10 16.0934 0 0
8:15 pm 20:15 Clear 46 7.5 43 6.2 92 92 Calm 30.19 1022 10 16.0934 0 0
8:35 pm 20:35 Clear 45 7.3 44 6.5 95 95 Calm 30.19 1022 10 16.0934 0 0
8:55 pm 20:55 Clear 46 7.6 44 6.8 95 95 Calm 30.18 1022 10 16.0934 0 0
9:15 pm 21:15 Clear 44 6.8 43 6.3 97 97 Calm 30.18 1022 10 16.0934 0 0
9:35 pm 21:35 Clear 44 6.5 43 6.2 98 98 Calm 30.18 1022 10 16.0934 0 0
9:55 pm 21:55 Clear 43 6.1 42 5.7 97 97 Calm 30.18 1022 10 16.0934 0 0
10:15 pm 22:15 Clear 43 6 42 5.7 98 98 Calm 30.18 1022 10 16.0934 0 0
10:35 pm 22:35 Clear 43 5.9 42 5.5 97 97 Calm 30.18 1022 10 16.0934 0 0
10:55 pm 22:55 Clear 42 5.7 42 5.5 99 99 Calm 30.18 1022 10 16.0934 0 0
11:15 pm 23:15 Clear 40 4.6 40 4.2 97 97 Calm 30.18 1022 10 16.0934 0 0
11:35 pm 23:35 Clear 41 4.9 41 4.8 99 99 Calm 30.18 1022 10 16.0934 0 0
11:55 pm 23:55 Clear 41 5 41 5 100 100 Calm 30.17 1022 10 16.0934 0 0

Powered by AerisWeather